| time (UTC) | temp F | wind direction | speed knots | gust knots | rain 1hr in | rain 24hr in | rain mn in | humidity % | barometer mb |
| 20260510093016 | 55 | 68 | 7.8 | 18.2 | 0.00 | 0.00 | 0.00 | 73 | 1018.7 |
| 20260510090016 | 55 | 45 | 7.8 | 18.2 | 0.00 | 0.00 | 0.00 | 76 | 1018.7 |
| 20260510083016 | 53 | 45 | 8.7 | 20.0 | 0.00 | 0.00 | 0.00 | 79 | 1018.8 |
| 20260510080016 | 52 | 45 | 6.1 | 13.9 | 0.00 | 0.00 | 0.00 | 81 | 1018.7 |
| 20260510073016 | 51 | 45 | 5.2 | 13.9 | 0.00 | 0.00 | 0.00 | 82 | 1018.7 |
| 20260510070016 | 50 | 45 | 5.2 | 13.0 | 0.00 | 0.00 | 0.00 | 83 | 1018.7 |
| 20260510063016 | 50 | 45 | 5.2 | 13.0 | 0.00 | 0.00 | 0.00 | 83 | 1018.7 |
| 20260510060016 | 50 | 45 | 4.3 | 11.3 | 0.00 | 0.00 | 0.00 | 83 | 1018.5 |
| 20260510053015 | 50 | 45 | 4.3 | 13.0 | 0.00 | 0.00 | 0.00 | 83 | 1018.6 |
| 20260510050016 | 50 | 23 | 4.3 | 11.3 | 0.00 | 0.00 | 0.00 | 83 | 1018.6 |
| 20260510043016 | 51 | 23 | 4.3 | 9.6 | 0.00 | 0.00 | 0.00 | 81 | 1018.5 |
| 20260510040015 | 52 | 45 | 4.3 | 12.2 | 0.00 | 0.00 | 0.00 | 79 | 1018.7 |
| 20260510033017 | 52 | 45 | 3.5 | 11.3 | 0.00 | 0.00 | 0.00 | 76 | 1018.8 |
| 20260510030017 | 53 | 45 | 3.5 | 11.3 | 0.00 | 0.00 | 0.00 | 70 | 1019.0 |
| 20260510023017 | 54 | 45 | 2.6 | 8.7 | 0.00 | 0.00 | 0.00 | 68 | 1018.7 |
| 20260510020017 | 55 | 45 | 2.6 | 8.7 | 0.00 | 0.00 | 0.00 | 65 | 1018.5 |
| 20260510013037 | 55 | 45 | 2.6 | 11.3 | 0.00 | 0.00 | 0.00 | 65 | 1018.7 |
| 20260510010017 | 56 | 68 | 2.6 | 8.7 | 0.00 | 0.00 | 0.00 | 62 | 1018.8 |
| 20260510003017 | 56 | 68 | 1.7 | 7.0 | 0.00 | 0.00 | 0.00 | 59 | 1018.9 |
| 20260510000017 | 57 | 0.0 | 2.6 | 0.00 | 0.00 | 0.00 | 59 | 1018.9 | |
| 20260509233017 | 57 | 0.0 | 3.5 | 0.00 | 0.00 | 0.00 | 60 | 1018.9 | |
| 20260509230017 | 58 | 68 | 0.9 | 5.2 | 0.00 | 0.00 | 0.00 | 60 | 1018.9 |
| 20260509223017 | 59 | 68 | 2.6 | 9.6 | 0.00 | 0.00 | 0.00 | 60 | 1018.5 |
| 20260509220017 | 60 | 68 | 3.5 | 9.6 | 0.00 | 0.00 | 0.00 | 58 | 1018.4 |
| 20260509213017 | 62 | 68 | 3.5 | 9.6 | 0.00 | 0.00 | 0.00 | 57 | 1018.2 |
| 20260509210017 | 62 | 68 | 2.6 | 11.3 | 0.00 | 0.00 | 0.00 | 60 | 1018.1 |
| 20260509203017 | 62 | 68 | 2.6 | 6.1 | 0.00 | 0.00 | 0.00 | 62 | 1017.7 |
| 20260509200017 | 62 | 68 | 0.9 | 3.5 | 0.00 | 0.00 | 0.00 | 65 | 1017.6 |
| 20260509193017 | 64 | 0.0 | 1.7 | 0.00 | 0.00 | 0.00 | 65 | 1017.5 | |
| 20260509190017 | 66 | 0.0 | 2.6 | 0.00 | 0.00 | 0.00 | 61 | 1017.3 | |
| 20260509183036 | 67 | 90 | 0.9 | 3.5 | 0.00 | 0.00 | 0.00 | 57 | 1017.3 |
| 20260509180016 | 68 | 90 | 0.9 | 4.3 | 0.00 | 0.00 | 0.00 | 56 | 1017.4 |
| 20260509173017 | 68 | 113 | 1.7 | 7.8 | 0.00 | 0.00 | 0.00 | 59 | 1017.0 |
| 20260509170016 | 69 | 135 | 0.9 | 5.2 | 0.00 | 0.00 | 0.00 | 55 | 1017.2 |
| 20260509163017 | 69 | 225 | 1.7 | 6.1 | 0.00 | 0.00 | 0.00 | 58 | 1017.2 |
| 20260509160036 | 69 | 225 | 0.9 | 4.3 | 0.00 | 0.00 | 0.00 | 59 | 1017.2 |
| 20260509153036 | 67 | 135 | 0.9 | 4.3 | 0.00 | 0.00 | 0.00 | 60 | 1017.3 |
| 20260509150016 | 67 | 135 | 1.7 | 7.0 | 0.00 | 0.00 | 0.00 | 61 | 1017.5 |
| 20260509143036 | 70 | 90 | 2.6 | 11.3 | 0.00 | 0.00 | 0.00 | 52 | 1017.8 |
| 20260509140016 | 70 | 135 | 3.5 | 10.4 | 0.00 | 0.00 | 0.00 | 51 | 1017.7 |
| 20260509133016 | 70 | 90 | 4.3 | 10.4 | 0.00 | 0.00 | 0.00 | 50 | 1017.7 |
| 20260509130016 | 70 | 90 | 5.2 | 13.0 | 0.00 | 0.00 | 0.00 | 52 | 1017.8 |
| 20260509123016 | 68 | 135 | 5.2 | 13.0 | 0.00 | 0.00 | 0.00 | 56 | 1018.2 |
| 20260509120016 | 68 | 135 | 5.2 | 12.2 | 0.00 | 0.00 | 0.00 | 56 | 1018.4 |
| 20260509113016 | 67 | 90 | 4.3 | 11.3 | 0.00 | 0.00 | 0.00 | 56 | 1018.7 |
| 20260509110016 | 67 | 68 | 5.2 | 14.8 | 0.00 | 0.00 | 0.00 | 57 | 1018.9 |
| 20260509103016 | 66 | 90 | 4.3 | 11.3 | 0.00 | 0.00 | 0.00 | 62 | 1019.2 |
| 20260509100016 | 64 | 90 | 3.5 | 9.6 | 0.00 | 0.00 | 0.00 | 66 | 1019.2 |